sat.trackr.live / text

‹ back to catalog

CHINASAT 9B

NORAD 49125 · 2021-080A

PAYLOAD ACTIVE UNKNOWN

§ Identity

Operator
Country
PRC
Launch date
2021-09-09
Launch site
XICLF
Launch vehicle
Mass (kg)
RCS (m²)

Purposes: comms

External: N2YO · Heavens-Above · Gunter

§ Orbital elements

Epoch: 2026-09-20T00:17:46.676256Z

Period
1,436.11 min
Inclination
0.0350°
Eccentricity
0.0003416
Mean motion
1.00271035 rev/d
Perigee alt
35,772.4 km
Apogee alt
35,801.2 km
Semi-major
42,164.9 km
B*
0.0000e+0
RAAN
247.0538°
Arg perigee
295.6818°
Mean anomaly
282.0428°
Rev number
1,860

§ Raw data

CHINASAT 9B1 49125U 21080A   26263.01234579 -.00000317  00000+0  00000+0 0  99922 49125   0.0350 247.0538 0003416 295.6818 282.0428  1.00271035 18603

JSON: /api/v1/satellites/49125 · /tle

For live sub-satellite position, see the globe view (requires WebGL).

§ Visibility from observer

Set your observer location to see the next 7 days of passes ≥ 10°. The values pass through the URL so the page stays shareable.

No JS? Fill the form by hand. The geolocation button needs JavaScript.